Regional Weather Roundup
Issued by NWS

Home | Current Version | Previous Version | Graphics & Text | Print | Product List | Glossary On
Versions: 1 2 3 4 5 6 7 8 9 10 11 12 13 14 15 16 17 18 19 20 21 22 23 24 25 26 27 28 29 30 31 32 33 34 35 36 37 38 39 40 41 42 43 44 45 46 47 48 49 50
000
ASUS43 KDMX 312307
RWRIA

WEATHER ROUNDUP FOR IOWA
NATIONAL WEATHER SERVICE DES MOINES IA
600 PM CDT THU JUL 31 2014

NOTE: "FAIR" INDICATES FEW OR NO CLOUDS BELOW 12,000 FEET WITH NO
SIGNIFICANT WEATHER AND/OR OBSTRUCTIONS TO VISIBILITY.

* - THESE STATIONS ARE NOT NWS STATIONS...THUS NOT UNDER NWS
QUALITY CONTROL.  THEY ALSO DO NOT REPORT WEATHER SUCH
AS PRECIPITATION OR FOG.

IAZ001>003-012>014-020>022-031>034-043>046-010000-
   NORTHWEST IOWA

CITY           SKY/WX    TMP DP  RH WIND       PRES   REMARKS
CARROLL *      SUNNY     72  61  68 SW6       30.07F
CHEROKEE *     MOSUNNY   75  57  53 S8        30.05F
DENISON *      CLOUDY    68  64  88 CALM      30.06S
LE MARS *      SUNNY     75  61  60 VRB6      30.06S
ORANGE CITY *  MOSUNNY   79  57  47 SW7       30.05F HX  80
SHELDON *      SUNNY     77  61  57 W7        30.04S
SIOUX CITY     PTSUNNY   73  62  68 E9        30.04F
SPENCER        MOSUNNY   79  60  52 W9        30.04F HX  80
STORM LAKE *   SUNNY    N/A N/A N/A SW8       30.07F
$$

IAZ055>058-069>071-079>083-090>094-010000-
   SOUTHWEST IOWA

CITY           SKY/WX    TMP DP  RH WIND       PRES   REMARKS
ATLANTIC *     PTSUNNY   75  61  60 NE12      30.05F
AUDUBON *      PTSUNNY   72  66  83 CALM      30.09S
CLARINDA *     SUNNY     82  57  42 CALM      30.06S HX  82
COUNCIL BLFS * SUNNY     81  61  50 SE9       30.03S HX  81
CRESTON *      MOSUNNY   79  55  44 CALM      30.06F
HARLAN  *      PTSUNNY   73  64  73 E5        30.09F
LAMONI         SUNNY     81  53  37 NW3       30.05F HX  80
RED OAK *      PTSUNNY   81  55  41 CALM      30.05S HX  80
SHENANDOAH *   SUNNY     82  57  42 E5        30.04S HX  82
$$

IAZ047>049-059>061-072>074-084-010000-
   CENTRAL IOWA

CITY           SKY/WX    TMP DP  RH WIND       PRES   REMARKS
AMES           PTSUNNY   77  60  55 W6        30.05S
ANKENY *       SUNNY     79  57  47 NW7       30.05S HX  80
CHARITON *     MOSUNNY   81  55  41 SW5       30.05F HX  80
DES MOINES     PTSUNNY   80  56  43 W7        30.04S HX  80
GRINNELL*      SUNNY     79  59  50 W6        30.05F HX  80
KNOXVILLE *    SUNNY     79  59  50 CALM      30.04S HX  80
MARSHALLTOWN   MOSUNNY   79  62  56 W6        30.04F HX  80
PELLA *        MOSUNNY   81  59  47 CALM      30.05F HX  81
PERRY *        PTSUNNY   70  63  78 W7        30.07S
$$

IAZ004>006-015-016-023>025-035-036-010000-
   NORTH CENTRAL IOWA

CITY           SKY/WX    TMP DP  RH WIND       PRES   REMARKS
ALGONA *       SUNNY     79  57  47 SW6       30.04S HX  80
CLARION *      SUNNY     79  55  44 SW8       30.04F
ESTHERVILLE    PTSUNNY   76  61  59 S3        30.04S
FORT DODGE *   MOSUNNY   79  61  53 W8        30.06S HX  80
MASON CITY     PTSUNNY   80  56  43 W7        30.05F HX  80
FOREST CITY *  SUNNY     77  57  50 CALM      30.04S
IOWA FALLS *     N/A     79  57  47 SW5       30.05F HX  80
$$

IAZ007>011-017>019-026>030-037>042-050>054-066-010000-
   NORTHEAST IOWA

CITY           SKY/WX    TMP DP  RH WIND       PRES   REMARKS
CEDAR RAPIDS   CLOUDY    78  62  57 W6        30.03F HX  80
CHARLES CITY * PTSUNNY   77  59  53 NW6       30.04S
CLINTON *      SUNNY     79  61  53 NW8       30.07S HX  80
DECORAH *      SUNNY     77  54  44 VRB6      30.02S
DUBUQUE        SUNNY     77  57  50 W10       30.04F
MONTICELLO *   MOSUNNY   79  59  50 W7        30.03S HX  80
OELWEIN *      MOSUNNY   79  57  47 W7        30.04S HX  80
WATERLOO       SUNNY     80  54  40 W7        30.02F HX  80
$$

IAZ064-065-067-068-078-010000-
   EAST CENTRAL IOWA

CITY           SKY/WX    TMP DP  RH WIND       PRES   REMARKS
DAVENPORT      MOSUNNY   79  60  52 W6        30.05S HX  80
IOWA CITY      SUNNY     80  60  50 SW7       30.05S HX  81
MT. PLEASANT * SUNNY     81  57  44 SW5       30.05F HX  81
MUSCATINE *    SUNNY     82  59  44 W9        30.04S HX  82
QUAD CITIES    MOSUNNY   82  60  47 W7        30.03F HX  82
$$

IAZ062-063-075>077-085>089-095>099-010000-
   SOUTHEAST IOWA

CITY           SKY/WX    TMP DP  RH WIND       PRES   REMARKS
BURLINGTON     SUNNY     79  61  53 W7        30.05S HX  80
FAIRFIELD *    CLOUDY    79  61  53 CALM      30.05F HX  80
FORT MADISON * SUNNY     81  61  50 CALM      30.07S HX  81
KEOKUK *       SUNNY     81  61  50 CALM      30.05S HX  81
OSKALOOSA *      N/A     79  59  50 CALM      30.05F HX  80
CENTERVILLE *  SUNNY     81  57  44 SW3       30.07F HX  81
OTTUMWA        SUNNY     80  58  46 W3        30.05F HX  80
WASHINGTON *   SUNNY     79  61  53 W7        30.05F HX  80
$$

ABBREVIATIONS USED IN REMARKS
   TC - TEMPERATURES IN CELSIUS
  WCI - WIND CHILL INDEX
   HX - HEAT INDEX
  VSB - VISIBILITY
$$



USA.gov is the U.S. government's official web portal to all federal, state and local government web resources and services.